星链-35617(STARLINK-35617)

导读

STARLINK-35617是美国SpaceX星链星座计划中的一颗卫星,于2025年11月11日发射升空。作为星链低轨互联网星座的组成部分,该卫星承担着为全球范围内用户提供高速低延迟宽带互联网服务的任务,尤其服务偏远地区、移动载体的网络接入需求,进一步拓展了星链星座的覆盖范围与服务能力。

基本信息
目录编号:
66422
目录名称:
STARLINK-35617
国际标识:
2025-259A
轨道中心:
EARTH
卫星名称:
星链-35617
卫星全名:
星链-35617(STARLINK-35617)
卫星状态:
在轨 (已飞行214 天)
发射日期:
2025-11-11 UTC
国别 :
美国 (US)
星等 :
--
轨道信息
数据来源 国际轨道数据
星历时间: 2026-06-12T11:19:12+0800
1天前
查看轨道信息
半长轴: 6861.149km
偏心率: 0.000009
轨道倾角: 43.007°
近地点辐角 110.949°
升交点赤经 101.163°
平近点角 249.137°
近地点: 482.95km
远地点: 483.074km
周期: 94.266分钟
每日圈数: 15.275926
详细信息
固有亮度:
5
最大亮度:
2.5
卫星平台:
Starlink V1.0
覆盖范围:
全球
运营商:
太空探索技术公司
运营商所在国:
美国
制造商(研发单位):
太空探索技术公司
制造商所在国:
美国
使用方式:
暂无
卫星简介
Starlink 计划是 SpaceX 推出的全球卫星互联网项目,通过发射低轨道卫星,为全球尤其是偏远地区提供高速、低延迟的互联网服务。自 2019 年起,Starlink 已部署数千颗卫星,旨在缩小全球数字鸿沟,推动互联网普及。该项目还为军事、航空等行业提供通信支持,带来广泛经济效益。
2D轨道图
3D轨道图
轨道高度分析图
轨道倾角分析图
轨道综合分析图
查看轨道综合分析图